C/2006 O2 ( Garradd )

Japanese version
Home page
Updated on April 20, 2007

---------------------------------------------------------------------

* Profile

Discovery Date July 30, 2006
Magnitude 17.4 mag
Discoverer Gordon J. Garradd (Siding Spring Survey)

* Pictures

* Orbital Elements

T 2006 Oct. 5.4132 TT                                   MPC
q   1.554697             (2000.0)            P               Q
z  +0.002556       Peri.   19.9890      +0.4602954      +0.5894090
                   Node   283.3608      -0.8786749      +0.1957284
e   0.996026       Incl.   43.0267      -0.1267224      +0.7837649
From 62 observations 2006 July 30-Sept. 27.

* Magnitudes Graph

        m1 = 13.7 + 5 log d + 10.0 log r

---------------------------------------------------------------------

The orbital elements are published on M.P.E.C. 2006-S90.
The magnitudes graphs are made with Comet for Windows.

---------------------------------------------------------------------

Copyright(C) Seiichi Yoshida (comet@aerith.net). All rights reserved.